Weather History for CYYG - January, 2015

Change the Weather History Date:

Sunday, January 25, 2015

  Actual Average Record
Temperature  
Mean Temperature 28 °F -  
Max Temperature 42 °F 26 °F 46 °F (1998)
Min Temperature 14 °F 10 °F -9 °F (2004)
Degree Days  
Heating Degree Days 36    
Moisture  
Dew Point 26 °F    
Average Humidity 83    
Maximum Humidity 100    
Minimum Humidity 54    
Precipitation  
Precipitation 0.02 in 0.12 in - ()
Sea Level Pressure  
Sea Level Pressure 28.96 in    
Wind  
Wind Speed 14 mph ()    
Max Wind Speed 32 mph    
Max Gust Speed 45 mph    
Visibility 9.3 miles    
Events Fog , Rain , Snow    
Averages and records for this station are not official NWS values.
T = Trace of Precipitation, MM = Missing Value Source: Averaged Metar Reports

Daily Weather History Graph

Daily Weather History Graph

Search for Another Location

Airport or City:

Trip Planner

Search our weather history database for the weather conditions in past years. The results will help you decide how hot, cold, wet, or windy it might be!

Date:

Astronomy

Jan. 25, 2015 Rise Set
Actual Time 7:43 AM AST 5:06 PM AST
Civil Twilight 7:10 AM AST 5:39 PM AST
Nautical Twilight 6:34 AM AST 6:15 PM AST
Astronomical Twilight 5:58 AM AST 6:51 PM AST
Moon 10:25 AM AST (1/25) 11:49 PM AST (1/25)
Length of Visible Light 10h 28m
Length of Day
9h 22m
Waxing Crescent, 33% of the Moon is Illuminated
Jan 25
Waxing Crescent
Jan 27
First Quarter
Feb 3
Full
Feb 11
Last Quarter
Feb 18
New

Hourly Weather History & Observations

Time (AST) Temp. Windchill Dew Point Humidity Pressure Visibility Wind Dir Wind Speed Gust Speed Precip Events Conditions
12:00 AM 35.6 °F 25.5 °F 35.6 °F 100% 28.69 in 4.0 mi ENE 17.3 mph 31.1 mph N/A Rain Rain
12:14 AM 37.4 °F 27.2 °F 37.4 °F 100% 28.64 in 10.0 mi East 19.6 mph 35.7 mph N/A Rain Light Rain
12:48 AM 39.2 °F 32.0 °F 37.4 °F 93% 28.61 in 15.0 mi ESE 11.5 mph 20.7 mph N/A   Overcast
1:00 AM 39.2 °F 32.5 °F 37.4 °F 93% 28.60 in 15.0 mi ESE 10.4 mph 17.3 mph N/A   Overcast
1:06 AM 39.2 °F 33.6 °F 37.4 °F 93% 28.59 in 3.0 mi ESE 8.1 mph - N/A Rain Light Rain Showers
1:19 AM 39.2 °F 35.0 °F 37.4 °F 93% 28.58 in 2.0 mi ESE 5.8 mph - N/A   Light Drizzle
1:38 AM 39.2 °F 34.2 °F 39.2 °F 100% 28.55 in 0.8 mi ESE 6.9 mph - N/A   Light Drizzle
2:00 AM 38 °F - 38 °F 99% 28.52 in 0 mi SE 5.8 mph - - Rain Light Drizzle
2:00 AM 37.4 °F 32.8 °F 37.4 °F 100% 28.52 in 0.4 mi SE 5.8 mph - N/A Fog Light Drizzle
2:21 AM 39.2 °F 33.0 °F 39.2 °F 100% 28.50 in 0.2 mi SSE 9.2 mph - N/A Fog Light Drizzle
3:00 AM 42.8 °F 35.4 °F 42.8 °F 100% 28.47 in 0.5 mi South 15.0 mph - N/A Fog Light Drizzle
3:49 AM 37.4 °F 29.8 °F 37.4 °F 100% 28.47 in 2.0 mi WSW 11.5 mph 17.3 mph N/A   Light Drizzle
4:00 AM 37.4 °F 29.3 °F 35.6 °F 93% 28.48 in 6.0 mi West 12.7 mph - N/A   Light Drizzle
4:06 AM 35.6 °F 26.2 °F 35.6 °F 100% 28.49 in 10.0 mi West 15.0 mph 21.9 mph N/A   Overcast
4:13 AM 33.8 °F 22.8 °F 33.8 °F 100% 28.50 in 10.0 mi West 18.4 mph 27.6 mph N/A Rain Light Rain Showers
4:39 AM 32.0 °F 22.1 °F 32.0 °F 100% 28.53 in 8.0 mi West 13.8 mph 28.8 mph N/A Rain Light Rain Showers
4:51 AM 32.0 °F 20.1 °F 30.2 °F 93% 28.55 in 1.5 mi West 19.6 mph 31.1 mph N/A Snow Light Snow Showers
5:00 AM 32.0 °F 19.8 °F 30.2 °F 93% 28.56 in 1.8 mi WNW 20.7 mph 34.5 mph N/A Snow Light Snow Showers
5:52 AM 32.0 °F 17.2 °F 28.4 °F 87% 28.69 in 2.5 mi West 32.2 mph 44.9 mph N/A Snow Light Snow Showers
6:00 AM 32.0 °F 18.9 °F 28.4 °F 87% 28.70 in 5.0 mi WNW 24.2 mph 44.9 mph N/A Snow Light Snow Showers
7:00 AM 30.2 °F 15.9 °F 26.6 °F 86% 28.83 in 10.0 mi West 26.5 mph 42.6 mph N/A Snow Light Snow Showers
8:00 AM 30 °F - 26 °F 80% 28.95 in 15 mi West 20.7 mph - - Snow Light Snow Showers
8:00 AM 30.2 °F 17.4 °F 26.6 °F 86% 28.95 in 15.0 mi West 20.7 mph 31.1 mph N/A   Overcast
9:00 AM 30.2 °F 19.3 °F 24.8 °F 80% 29.03 in 15.0 mi West 15.0 mph 29.9 mph N/A   Overcast
10:00 AM 30.2 °F 17.8 °F 24.8 °F 80% 29.10 in 15.0 mi West 19.6 mph 32.2 mph N/A   Overcast
11:00 AM 30.2 °F 18.5 °F 24.8 °F 80% 29.15 in 20.0 mi WSW 17.3 mph 32.2 mph N/A   Mostly Cloudy
12:00 PM 32.0 °F 20.1 °F 24.8 °F 75% 29.17 in 15.0 mi WSW 19.6 mph 32.2 mph N/A   Mostly Cloudy
1:00 PM 30.2 °F 20.2 °F 26.6 °F 86% 29.21 in 15.0 mi SW 12.7 mph 20.7 mph N/A   Overcast
2:00 PM 33 °F - 26 °F 68% 29.22 in 15 mi SW 12.7 mph - -   Mostly Cloudy
2:00 PM 32.0 °F 22.5 °F 26.6 °F 80% 29.22 in 15.0 mi WSW 12.7 mph 21.9 mph N/A   Mostly Cloudy
3:00 PM 33.8 °F 23.5 °F 26.6 °F 75% 29.23 in 15.0 mi SW 16.1 mph 28.8 mph N/A   Mostly Cloudy
4:00 PM 33.8 °F 23.5 °F 23.0 °F 65% 29.24 in 15.0 mi SW 16.1 mph 24.2 mph N/A   Mostly Cloudy
5:00 PM 30.2 °F 18.1 °F 17.6 °F 60% 29.27 in 15.0 mi WSW 18.4 mph 25.3 mph N/A   Scattered Clouds
6:00 PM 26.6 °F 13.8 °F 14.0 °F 59% 29.32 in 15.0 mi West 17.3 mph 26.5 mph N/A   Scattered Clouds
7:00 PM 24.8 °F 10.3 °F 10.4 °F 54% 29.37 in 15.0 mi WSW 20.7 mph 36.8 mph N/A   Mostly Cloudy
7:46 PM 23.0 °F 9.2 °F 12.2 °F 63% 29.40 in 12.0 mi West 17.3 mph 27.6 mph N/A Snow Light Snow Showers
8:00 PM 22 °F - 13 °F 58% 29.41 in 12 mi West 17.3 mph - - Snow Light Snow Showers
8:00 PM 23.0 °F 8.7 °F 14.0 °F 68% 29.41 in 12.0 mi West 18.4 mph 28.8 mph N/A Snow Light Snow Showers
8:07 PM 21.2 °F 7.8 °F 15.8 °F 80% 29.42 in 7.0 mi West 15.0 mph 26.5 mph N/A Snow Light Snow Showers
8:14 PM 19.4 °F 4.5 °F 15.8 °F 86% 29.43 in 1.0 mi WNW 17.3 mph 23.0 mph N/A Snow Light Snow Showers
8:36 PM 19.4 °F 6.0 °F 14.0 °F 80% 29.45 in 8.0 mi West 13.8 mph 24.2 mph N/A Snow Light Snow Showers
9:00 PM 17.6 °F 3.2 °F 10.4 °F 73% 29.47 in 8.0 mi West 15.0 mph 26.5 mph N/A Snow Light Snow Showers
9:20 PM 17.6 °F 2.7 °F 8.6 °F 68% 29.48 in 15.0 mi West 16.1 mph 31.1 mph N/A   Mostly Cloudy
10:00 PM 15.8 °F -3.1 °F 5.0 °F 62% 29.52 in 15.0 mi West 25.3 mph 34.5 mph N/A   Mostly Cloudy
11:00 PM 14.0 °F -1.4 °F 5.0 °F 67% 29.57 in 8.0 mi West 15.0 mph 35.7 mph N/A Snow Light Snow Showers